| time (UTC) | temp F | wind direction | speed knots | gust knots | rain 1hr in | rain 24hr in | rain mn in | humidity % | barometer mb |
| 20260901155017 | 63 | 36 | 2.6 | 8.7 | 0.06 | 0.28 | 0.28 | 94 | 1017.8 |
| 20260901154511 | 64 | 29 | 4.3 | 8.7 | 0.06 | 0.28 | 0.28 | 94 | 1017.8 |
| 20260901154006 | 64 | 36 | 4.3 | 8.7 | 0.05 | 0.27 | 0.27 | 94 | 1017.8 |
| 20260901153509 | 64 | 9 | 4.3 | 10.4 | 0.04 | 0.26 | 0.26 | 93 | 1017.7 |
| 20260901153054 | 64 | 22 | 5.2 | 10.4 | 0.02 | 0.24 | 0.24 | 93 | 1017.7 |
| 20260901152517 | 63 | 25 | 5.2 | 10.4 | 0.00 | 0.22 | 0.22 | 93 | 1017.7 |
| 20260901152009 | 64 | 20 | 4.3 | 10.4 | 0.00 | 0.22 | 0.22 | 93 | 1017.7 |
| 20260901151538 | 63 | 21 | 5.2 | 10.4 | 0.00 | 0.22 | 0.22 | 93 | 1017.7 |
| 20260901151011 | 64 | 18 | 5.2 | 11.3 | 0.00 | 0.22 | 0.22 | 93 | 1017.6 |
| 20260901150512 | 64 | 43 | 7.0 | 11.3 | 0.00 | 0.22 | 0.22 | 93 | 1017.6 |
| 20260901150036 | 64 | 34 | 5.2 | 11.3 | 0.00 | 0.22 | 0.22 | 93 | 1017.6 |
| 20260901145512 | 64 | 44 | 7.0 | 11.3 | 0.00 | 0.22 | 0.22 | 93 | 1017.4 |
| 20260901145017 | 65 | 67 | 7.8 | 12.2 | 0.00 | 0.22 | 0.22 | 93 | 1017.3 |
| 20260901144540 | 65 | 24 | 7.0 | 12.2 | 0.00 | 0.22 | 0.22 | 94 | 1017.3 |
| 20260901144014 | 65 | 50 | 6.1 | 10.4 | 0.00 | 0.22 | 0.22 | 94 | 1017.2 |
| 20260901143516 | 65 | 41 | 1.7 | 9.6 | 0.00 | 0.22 | 0.22 | 94 | 1017.3 |
| 20260901143011 | 65 | 25 | 4.3 | 9.6 | 0.00 | 0.22 | 0.22 | 94 | 1017.2 |
| 20260901142506 | 65 | 18 | 4.3 | 9.6 | 0.00 | 0.22 | 0.22 | 94 | 1017.3 |
| 20260901142006 | 65 | 328 | 5.2 | 9.6 | 0.00 | 0.22 | 0.22 | 94 | 1017.3 |
| 20260901141530 | 65 | 24 | 5.2 | 9.6 | 0.00 | 0.22 | 0.22 | 94 | 1017.3 |
| 20260901141010 | 65 | 26 | 5.2 | 9.6 | 0.00 | 0.22 | 0.22 | 94 | 1017.6 |
| 20260901140520 | 65 | 40 | 4.3 | 9.6 | 0.00 | 0.22 | 0.22 | 94 | 1017.7 |
| 20260901140029 | 65 | 43 | 5.2 | 7.8 | 0.00 | 0.22 | 0.22 | 94 | 1017.8 |
| 20260901135511 | 65 | 36 | 3.5 | 7.8 | 0.00 | 0.22 | 0.22 | 95 | 1017.8 |
| 20260901135015 | 64 | 19 | 4.3 | 7.8 | 0.00 | 0.22 | 0.22 | 94 | 1017.9 |
| 20260901134529 | 65 | 33 | 3.5 | 5.2 | 0.00 | 0.22 | 0.22 | 95 | 1017.9 |
| 20260901134014 | 64 | 337 | 3.5 | 6.1 | 0.00 | 0.22 | 0.22 | 94 | 1017.8 |
| 20260901133516 | 64 | 61 | 2.6 | 6.1 | 0.00 | 0.22 | 0.22 | 94 | 1017.8 |
| 20260901133032 | 64 | 298 | 1.7 | 6.1 | 0.00 | 0.22 | 0.22 | 94 | 1017.9 |
| 20260901132515 | 64 | 9 | 0.9 | 7.0 | 0.00 | 0.22 | 0.22 | 94 | 1017.9 |
| 20260901132022 | 64 | 24 | 2.6 | 7.0 | 0.00 | 0.22 | 0.22 | 94 | 1018.0 |
| 20260901131627 | 64 | 19 | 2.6 | 7.0 | 0.00 | 0.22 | 0.22 | 94 | 1018.0 |
| 20260901131009 | 64 | 26 | 3.5 | 7.0 | 0.00 | 0.22 | 0.22 | 94 | 1017.9 |
| 20260901130511 | 64 | 46 | 4.3 | 7.0 | 0.01 | 0.22 | 0.22 | 94 | 1018.0 |
| 20260901130023 | 64 | 327 | 3.5 | 7.8 | 0.01 | 0.22 | 0.22 | 94 | 1018.0 |
| 20260901125514 | 64 | 13 | 3.5 | 7.8 | 0.01 | 0.22 | 0.22 | 94 | 1018.0 |
| 20260901125012 | 64 | 36 | 3.5 | 7.0 | 0.01 | 0.22 | 0.22 | 94 | 1017.9 |
| 20260901124527 | 64 | 39 | 3.5 | 7.0 | 0.02 | 0.22 | 0.22 | 94 | 1018.1 |
| 20260901124014 | 64 | 47 | 2.6 | 8.7 | 0.02 | 0.22 | 0.22 | 94 | 1018.3 |
| 20260901123512 | 64 | 41 | 3.5 | 8.7 | 0.03 | 0.22 | 0.22 | 94 | 1018.3 |
| 20260901123031 | 64 | 23 | 4.3 | 8.7 | 0.04 | 0.22 | 0.22 | 94 | 1018.2 |
| 20260901122514 | 64 | 11 | 4.3 | 8.7 | 0.05 | 0.22 | 0.22 | 94 | 1018.2 |
| 20260901122015 | 64 | 26 | 3.5 | 10.4 | 0.07 | 0.22 | 0.22 | 94 | 1018.2 |
| 20260901121533 | 64 | 342 | 5.2 | 10.4 | 0.09 | 0.22 | 0.22 | 94 | 1018.1 |
| 20260901121016 | 63 | 15 | 4.3 | 10.4 | 0.10 | 0.22 | 0.22 | 94 | 1018.1 |
| 20260901120518 | 64 | 46 | 7.0 | 10.4 | 0.11 | 0.21 | 0.21 | 94 | 1018.1 |
| 20260901120021 | 64 | 25 | 4.3 | 7.0 | 0.13 | 0.21 | 0.21 | 94 | 1018.1 |
| 20260901115516 | 64 | 9 | 2.6 | 6.1 | 0.14 | 0.21 | 0.21 | 94 | 1018.2 |
| 20260901115011 | 64 | 28 | 1.7 | 6.1 | 0.15 | 0.21 | 0.21 | 94 | 1018.3 |
| 20260901114530 | 64 | 9 | 2.6 | 7.0 | 0.16 | 0.20 | 0.20 | 94 | 1018.2 |
| 20260901114014 | 64 | 28 | 2.6 | 9.6 | 0.17 | 0.20 | 0.20 | 94 | 1018.3 |
| 20260901113503 | 64 | 347 | 2.6 | 9.6 | 0.17 | 0.19 | 0.19 | 93 | 1018.4 |
| 20260901113005 | 64 | 319 | 2.6 | 8.7 | 0.17 | 0.18 | 0.18 | 93 | 1018.4 |
| 20260901112502 | 64 | 341 | 3.5 | 10.4 | 0.16 | 0.17 | 0.17 | 93 | 1018.4 |
| 20260901112004 | 65 | 19 | 4.3 | 10.4 | 0.14 | 0.15 | 0.15 | 93 | 1018.3 |
| 20260901111516 | 65 | 19 | 5.2 | 10.4 | 0.13 | 0.13 | 0.13 | 93 | 1018.0 |
| 20260901111005 | 66 | 337 | 6.1 | 10.4 | 0.12 | 0.12 | 0.12 | 94 | 1018.1 |
| 20260901110512 | 66 | 45 | 2.6 | 6.1 | 0.10 | 0.10 | 0.10 | 94 | 1018.1 |
| 20260901110014 | 66 | 36 | 2.6 | 4.3 | 0.08 | 0.08 | 0.08 | 94 | 1018.0 |
| 20260901105516 | 66 | 39 | 2.6 | 4.3 | 0.07 | 0.07 | 0.07 | 93 | 1017.9 |
| 20260901105011 | 66 | 55 | 1.7 | 3.5 | 0.06 | 0.06 | 0.06 | 93 | 1017.9 |
| 20260901104522 | 66 | 41 | 0.9 | 3.5 | 0.04 | 0.04 | 0.04 | 93 | 1017.9 |
| 20260901104012 | 66 | 19 | 1.7 | 2.6 | 0.03 | 0.03 | 0.03 | 93 | 1017.8 |
| 20260901103518 | 66 | 22 | 0.9 | 2.6 | 0.02 | 0.02 | 0.02 | 93 | 1017.7 |
| 20260901103028 | 66 | 17 | 1.7 | 2.6 | 0.01 | 0.01 | 0.01 | 93 | 1017.5 |
| 20260901102516 | 66 | 67 | 0.9 | 2.6 | 0.01 | 0.01 | 0.01 | 92 | 1017.5 |
| 20260901102016 | 66 | 61 | 0.0 | 2.6 | 0.01 | 0.01 | 0.01 | 92 | 1017.5 |
| 20260901101516 | 66 | 178 | 0.0 | 2.6 | 0.00 | 0.00 | 0.00 | 92 | 1017.4 |
| 20260901101006 | 67 | 243 | 0.9 | 2.6 | 0.00 | 0.00 | 0.00 | 92 | 1017.4 |
| 20260901100509 | 67 | 238 | 1.7 | 2.6 | 0.00 | 0.00 | 0.00 | 92 | 1017.4 |
| 20260901100015 | 66 | 221 | 0.0 | 1.7 | 0.00 | 0.00 | 0.00 | 91 | 1017.3 |
| 20260901095505 | 66 | 265 | 0.0 | 2.6 | 0.00 | 0.00 | 0.00 | 91 | 1017.3 |
| 20260901095018 | 67 | 51 | 0.9 | 2.6 | 0.00 | 0.00 | 0.00 | 91 | 1017.3 |
| 20260901094533 | 67 | 41 | 1.7 | 2.6 | 0.00 | 0.00 | 0.00 | 91 | 1017.3 |
| 20260901094012 | 67 | 46 | 0.9 | 2.6 | 0.00 | 0.00 | 0.00 | 91 | 1017.3 |
| 20260901093023 | 67 | 221 | 0.9 | 3.5 | 0.00 | 0.00 | 0.00 | 90 | 1017.3 |
| 20260901092510 | 67 | 221 | 1.7 | 2.6 | 0.00 | 0.00 | 0.00 | 90 | 1017.3 |
| 20260901092014 | 67 | 200 | 1.7 | 2.6 | 0.00 | 0.00 | 0.00 | 90 | 1017.3 |
| 20260901091547 | 67 | 205 | 0.9 | 3.5 | 0.00 | 0.00 | 0.00 | 90 | 1017.5 |
| 20260901091015 | 67 | 265 | 0.9 | 3.5 | 0.00 | 0.00 | 0.00 | 90 | 1017.5 |
| 20260901090517 | 67 | 217 | 1.7 | 3.5 | 0.00 | 0.00 | 0.00 | 90 | 1017.5 |
| 20260901090030 | 67 | 221 | 0.9 | 2.6 | 0.00 | 0.00 | 0.00 | 90 | 1017.5 |
| 20260901085503 | 67 | 146 | 0.9 | 3.5 | 0.00 | 0.00 | 0.00 | 90 | 1017.5 |
| 20260901085007 | 67 | 126 | 0.9 | 3.5 | 0.00 | 0.00 | 0.00 | 90 | 1017.5 |
| 20260901084530 | 67 | 190 | 0.9 | 2.6 | 0.00 | 0.00 | 0.00 | 90 | 1017.6 |
| 20260901084008 | 67 | 209 | 0.9 | 2.6 | 0.00 | 0.00 | 0.00 | 90 | 1017.6 |
| 20260901083507 | 67 | 215 | 1.7 | 3.5 | 0.00 | 0.00 | 0.00 | 90 | 1017.5 |
| 20260901083027 | 67 | 205 | 1.7 | 5.2 | 0.00 | 0.00 | 0.00 | 90 | 1017.6 |
| 20260901082512 | 67 | 254 | 1.7 | 6.1 | 0.00 | 0.00 | 0.00 | 90 | 1017.6 |
| 20260901082014 | 67 | 195 | 3.5 | 6.1 | 0.00 | 0.00 | 0.00 | 90 | 1017.5 |
| 20260901081526 | 67 | 221 | 3.5 | 6.1 | 0.00 | 0.00 | 0.00 | 90 | 1017.5 |
| 20260901081014 | 67 | 208 | 2.6 | 5.2 | 0.00 | 0.00 | 0.00 | 90 | 1017.4 |
| 20260901080514 | 67 | 217 | 3.5 | 5.2 | 0.00 | 0.00 | 0.00 | 90 | 1017.4 |
| 20260901080108 | 67 | 221 | 1.7 | 4.3 | 0.00 | 0.00 | 0.00 | 91 | 1017.3 |
| 20260901075516 | 67 | 208 | 1.7 | 5.2 | 0.00 | 0.00 | 0.00 | 91 | 1017.3 |
| 20260901075018 | 67 | 243 | 1.7 | 5.2 | 0.00 | 0.00 | 0.00 | 91 | 1017.2 |
| 20260901074534 | 67 | 225 | 1.7 | 3.5 | 0.00 | 0.00 | 0.00 | 91 | 1017.1 |
| 20260901074007 | 67 | 232 | 0.9 | 3.5 | 0.00 | 0.00 | 0.00 | 91 | 1017.2 |
| 20260901073507 | 66 | 178 | 1.7 | 3.5 | 0.00 | 0.00 | 0.00 | 91 | 1017.3 |
| 20260901073021 | 66 | 221 | 1.7 | 4.3 | 0.00 | 0.00 | 0.00 | 91 | 1017.3 |
| 20260901072510 | 66 | 221 | 1.7 | 4.3 | 0.00 | 0.00 | 0.00 | 91 | 1017.3 |
| 20260901072011 | 66 | 219 | 2.6 | 4.3 | 0.00 | 0.00 | 0.00 | 91 | 1017.5 |
| 20260901071526 | 66 | 221 | 1.7 | 3.5 | 0.00 | 0.00 | 0.00 | 91 | 1017.5 |
| 20260901071021 | 67 | 208 | 1.7 | 2.6 | 0.00 | 0.00 | 0.00 | 92 | 1017.6 |
| 20260901070511 | 66 | 238 | 0.0 | 1.7 | 0.00 | 0.00 | 0.00 | 91 | 1017.8 |
| 20260901070031 | 66 | 51 | 0.0 | 2.6 | 0.00 | 0.00 | 0.00 | 91 | 1017.9 |
| 20260901065522 | 66 | 9 | 0.9 | 3.5 | 0.00 | 0.00 | 0.00 | 91 | 1018.0 |
| 20260901065014 | 67 | 34 | 2.6 | 3.5 | 0.00 | 0.00 | 0.00 | 91 | 1018.1 |
| 20260901064534 | 67 | 34 | 0.0 | 2.6 | 0.00 | 0.00 | 0.00 | 91 | 1018.1 |
| 20260901064014 | 67 | 238 | 0.9 | 2.6 | 0.00 | 0.00 | 0.00 | 91 | 1018.0 |
| 20260901063522 | 67 | 221 | 0.9 | 2.6 | 0.00 | 0.00 | 0.00 | 91 | 1018.0 |
| 20260901063051 | 67 | 221 | 0.9 | 2.6 | 0.00 | 0.00 | 0.00 | 91 | 1018.1 |
| 20260901062510 | 67 | 265 | 0.0 | 2.6 | 0.00 | 0.00 | 0.00 | 91 | 1018.1 |
| 20260901062009 | 67 | 9 | 0.0 | 3.5 | 0.00 | 0.00 | 0.00 | 91 | 1018.1 |
| 20260901061524 | 67 | 51 | 1.7 | 3.5 | 0.00 | 0.00 | 0.00 | 91 | 1018.1 |
| 20260901061009 | 67 | 51 | 2.6 | 4.3 | 0.00 | 0.00 | 0.00 | 91 | 1018.2 |
| 20260901060512 | 67 | 57 | 2.6 | 4.3 | 0.00 | 0.00 | 0.00 | 90 | 1018.2 |
| 20260901060031 | 67 | 9 | 2.6 | 3.5 | 0.00 | 0.00 | 0.00 | 91 | 1018.2 |
| 20260901055514 | 67 | 38 | 1.7 | 3.5 | 0.00 | 0.00 | 0.00 | 91 | 1018.1 |
| 20260901055014 | 67 | 9 | 0.9 | 3.5 | 0.00 | 0.00 | 0.00 | 91 | 1018.0 |
| 20260901054535 | 67 | 9 | 0.0 | 2.6 | 0.00 | 0.00 | 0.00 | 90 | 1018.1 |
| 20260901054014 | 67 | 41 | 1.7 | 2.6 | 0.00 | 0.00 | 0.00 | 90 | 1018.1 |
| 20260901053516 | 67 | 34 | 0.9 | 2.6 | 0.00 | 0.00 | 0.00 | 90 | 1018.2 |
| 20260901053037 | 67 | 34 | 0.0 | 2.6 | 0.00 | 0.00 | 0.00 | 90 | 1018.2 |
| 20260901052519 | 67 | 9 | 0.0 | 3.5 | 0.00 | 0.00 | 0.00 | 90 | 1018.2 |
| 20260901052020 | 67 | 51 | 1.7 | 3.5 | 0.00 | 0.00 | 0.00 | 90 | 1018.2 |
| 20260901051538 | 67 | 34 | 1.7 | 3.5 | 0.00 | 0.00 | 0.00 | 90 | 1018.3 |
| 20260901051012 | 67 | 34 | 0.9 | 3.5 | 0.00 | 0.00 | 0.00 | 90 | 1018.2 |
| 20260901050510 | 67 | 41 | 1.7 | 3.5 | 0.00 | 0.00 | 0.00 | 90 | 1018.1 |
| 20260901050027 | 67 | 51 | 1.7 | 2.6 | 0.00 | 0.00 | 0.00 | 89 | 1018.1 |
| 20260901045512 | 67 | 51 | 0.0 | 0.9 | 0.00 | 0.00 | 0.00 | 89 | 1018.0 |
| 20260901045011 | 67 | 51 | 0.0 | 1.7 | 0.00 | 0.00 | 0.00 | 89 | 1018.0 |
| 20260901044527 | 67 | 51 | 0.0 | 1.7 | 0.00 | 0.00 | 0.00 | 89 | 1018.0 |
| 20260901044014 | 67 | 265 | 0.0 | 0.9 | 0.00 | 0.00 | 0.00 | 89 | 1018.0 |
| 20260901043516 | 68 | 221 | 0.0 | 0.9 | 0.00 | 0.00 | 0.00 | 88 | 1018.0 |
| 20260901043035 | 68 | 221 | 0.0 | 1.7 | 0.00 | 0.00 | 0.00 | 88 | 1018.0 |
| 20260901042516 | 68 | 265 | 0.0 | 1.7 | 0.00 | 0.00 | 0.00 | 88 | 1018.0 |
| 20260901042005 | 68 | 205 | 0.0 | 0.9 | 0.00 | 0.00 | 0.00 | 88 | 1017.9 |
| 20260901041536 | 68 | 265 | 0.0 | 1.7 | 0.00 | 0.00 | 0.00 | 88 | 1018.0 |
| 20260901041010 | 68 | 265 | 0.0 | 1.7 | 0.00 | 0.00 | 0.00 | 87 | 1018.0 |
| 20260901040516 | 68 | 265 | 0.0 | 2.6 | 0.00 | 0.00 | 0.00 | 87 | 1018.0 |
| 20260901040022 | 68 | 76 | 0.0 | 2.6 | 0.00 | 0.00 | 0.00 | 87 | 1018.0 |
| 20260901035511 | 68 | 22 | 0.9 | 1.7 | 0.00 | 0.00 | 0.00 | 87 | 1018.0 |
| 20260901035010 | 68 | 334 | 0.9 | 1.7 | 0.00 | 0.00 | 0.00 | 87 | 1018.0 |
| 20260901034529 | 68 | 9 | 0.0 | 1.7 | 0.00 | 0.00 | 0.00 | 87 | 1018.0 |
| 20260901034012 | 68 | 325 | 0.0 | 1.7 | 0.00 | 0.00 | 0.00 | 87 | 1018.0 |
| 20260901033513 | 68 | 9 | 0.0 | 3.5 | 0.00 | 0.00 | 0.00 | 87 | 1017.9 |
| 20260901033030 | 68 | 9 | 0.0 | 3.5 | 0.00 | 0.00 | 0.00 | 87 | 1018.0 |
| 20260901032515 | 68 | 229 | 1.7 | 3.5 | 0.00 | 0.00 | 0.00 | 86 | 1018.0 |
| 20260901032017 | 68 | 238 | 0.9 | 3.5 | 0.00 | 0.00 | 0.00 | 87 | 1018.1 |
| 20260901031535 | 68 | 250 | 0.9 | 4.3 | 0.00 | 0.00 | 0.00 | 86 | 1018.2 |
| 20260901031017 | 68 | 300 | 1.7 | 4.3 | 0.00 | 0.00 | 0.00 | 86 | 1018.2 |
| 20260901030506 | 68 | 247 | 1.7 | 3.5 | 0.00 | 0.00 | 0.00 | 87 | 1018.2 |
| 20260901030038 | 68 | 217 | 1.7 | 2.6 | 0.00 | 0.00 | 0.00 | 87 | 1018.2 |
| 20260901025513 | 68 | 238 | 0.0 | 1.7 | 0.00 | 0.00 | 0.00 | 87 | 1018.3 |
| 20260901025012 | 68 | 325 | 0.9 | 3.5 | 0.00 | 0.00 | 0.00 | 87 | 1018.4 |
| 20260901024531 | 68 | 265 | 0.0 | 3.5 | 0.00 | 0.00 | 0.00 | 86 | 1018.3 |
| 20260901024015 | 68 | 163 | 0.9 | 3.5 | 0.00 | 0.00 | 0.00 | 86 | 1018.4 |
| 20260901023512 | 68 | 190 | 1.7 | 4.3 | 0.00 | 0.00 | 0.00 | 86 | 1018.3 |
| 20260901023030 | 68 | 225 | 2.6 | 4.3 | 0.00 | 0.00 | 0.00 | 86 | 1018.3 |
| 20260901022514 | 68 | 238 | 1.7 | 3.5 | 0.00 | 0.00 | 0.00 | 87 | 1018.2 |
| 20260901022015 | 68 | 234 | 1.7 | 3.5 | 0.00 | 0.00 | 0.00 | 87 | 1018.3 |
| 20260901021531 | 68 | 215 | 1.7 | 2.6 | 0.00 | 0.00 | 0.00 | 86 | 1018.2 |
| 20260901021016 | 68 | 265 | 1.7 | 2.6 | 0.00 | 0.00 | 0.00 | 86 | 1018.2 |
| 20260901020517 | 68 | 229 | 1.7 | 2.6 | 0.00 | 0.00 | 0.00 | 86 | 1018.2 |
| 20260901020038 | 68 | 243 | 1.7 | 2.6 | 0.00 | 0.00 | 0.00 | 87 | 1018.2 |
| 20260901015520 | 68 | 247 | 0.9 | 2.6 | 0.00 | 0.00 | 0.00 | 86 | 1018.2 |
| 20260901015018 | 69 | 51 | 0.0 | 1.7 | 0.00 | 0.00 | 0.00 | 86 | 1018.3 |
| 20260901014524 | 69 | 178 | 0.0 | 2.6 | 0.00 | 0.00 | 0.00 | 85 | 1018.2 |
| 20260901014019 | 69 | 265 | 0.9 | 2.6 | 0.00 | 0.00 | 0.00 | 84 | 1018.3 |
| 20260901013514 | 69 | 325 | 0.0 | 2.6 | 0.00 | 0.00 | 0.00 | 85 | 1018.3 |
| 20260901013007 | 69 | 265 | 0.9 | 3.5 | 0.00 | 0.00 | 0.00 | 85 | 1018.3 |
| 20260901012502 | 69 | 212 | 0.9 | 3.5 | 0.00 | 0.00 | 0.00 | 84 | 1018.3 |
| 20260901012002 | 69 | 227 | 1.7 | 3.5 | 0.00 | 0.00 | 0.00 | 84 | 1018.3 |
| 20260901011514 | 69 | 221 | 1.7 | 3.5 | 0.00 | 0.00 | 0.00 | 83 | 1018.3 |
| 20260901011002 | 69 | 218 | 2.6 | 3.5 | 0.00 | 0.00 | 0.00 | 83 | 1018.2 |
| 20260901010506 | 69 | 247 | 1.7 | 3.5 | 0.00 | 0.00 | 0.00 | 83 | 1018.2 |
| 20260901010037 | 69 | 241 | 1.7 | 3.5 | 0.00 | 0.00 | 0.00 | 83 | 1018.3 |
| 20260901005509 | 70 | 208 | 1.7 | 3.5 | 0.00 | 0.00 | 0.00 | 83 | 1018.3 |
| 20260901005021 | 70 | 200 | 1.7 | 4.3 | 0.00 | 0.00 | 0.00 | 82 | 1018.2 |
| 20260901004523 | 69 | 215 | 1.7 | 4.3 | 0.00 | 0.00 | 0.00 | 83 | 1018.2 |
| 20260901004011 | 70 | 212 | 2.6 | 5.2 | 0.00 | 0.00 | 0.00 | 83 | 1018.2 |
| 20260901003517 | 70 | 205 | 2.6 | 5.2 | 0.00 | 0.00 | 0.00 | 82 | 1018.2 |
| 20260901003031 | 70 | 208 | 2.6 | 5.2 | 0.00 | 0.00 | 0.00 | 81 | 1018.2 |
| 20260901002517 | 70 | 219 | 2.6 | 5.2 | 0.00 | 0.00 | 0.00 | 81 | 1018.3 |
| 20260901002012 | 70 | 208 | 2.6 | 5.2 | 0.00 | 0.00 | 0.00 | 81 | 1018.2 |
| 20260901001503 | 71 | 205 | 1.7 | 4.3 | 0.00 | 0.00 | 0.00 | 80 | 1018.2 |
| 20260901001003 | 71 | 229 | 2.6 | 5.2 | 0.00 | 0.00 | 0.00 | 79 | 1018.1 |
| 20260901000503 | 70 | 225 | 2.6 | 5.2 | 0.00 | 0.00 | 0.00 | 79 | 1018.1 |
| 20260901000018 | 70 | 218 | 2.6 | 4.3 | 0.00 | 0.00 | 0.00 | 81 | 1018.1 |
| 20260831235507 | 70 | 215 | 2.6 | 4.3 | 0.00 | 0.00 | 0.00 | 81 | 1018.0 |
| 20260831235007 | 71 | 195 | 2.6 | 4.3 | 0.00 | 0.00 | 0.00 | 80 | 1018.0 |
| 20260831234518 | 71 | 221 | 2.6 | 6.1 | 0.00 | 0.00 | 0.00 | 77 | 1018.1 |
| 20260831234008 | 72 | 234 | 2.6 | 6.1 | 0.00 | 0.00 | 0.00 | 77 | 1018.1 |
| 20260831233508 | 72 | 232 | 2.6 | 6.1 | 0.00 | 0.00 | 0.00 | 76 | 1018.1 |
| 20260831233022 | 72 | 243 | 2.6 | 6.1 | 0.00 | 0.00 | 0.00 | 76 | 1018.2 |
| 20260831232509 | 72 | 212 | 2.6 | 5.2 | 0.00 | 0.00 | 0.00 | 76 | 1018.2 |
| 20260831232011 | 72 | 216 | 2.6 | 7.0 | 0.00 | 0.00 | 0.00 | 76 | 1018.3 |
| 20260831231536 | 72 | 218 | 3.5 | 7.0 | 0.00 | 0.00 | 0.00 | 78 | 1018.4 |
| 20260831231016 | 72 | 214 | 2.6 | 4.3 | 0.00 | 0.00 | 0.00 | 77 | 1018.4 |
| 20260831230517 | 72 | 221 | 1.7 | 5.2 | 0.00 | 0.00 | 0.00 | 77 | 1018.5 |
| 20260831230033 | 73 | 215 | 2.6 | 5.2 | 0.00 | 0.00 | 0.00 | 76 | 1018.5 |
| 20260831225502 | 73 | 229 | 3.5 | 5.2 | 0.00 | 0.00 | 0.00 | 74 | 1018.6 |
| 20260831225006 | 73 | 218 | 2.6 | 5.2 | 0.00 | 0.00 | 0.00 | 73 | 1018.6 |
| 20260831224533 | 73 | 219 | 3.5 | 6.1 | 0.00 | 0.00 | 0.00 | 73 | 1018.6 |
| 20260831224010 | 73 | 219 | 3.5 | 6.1 | 0.00 | 0.00 | 0.00 | 73 | 1018.6 |
| 20260831223506 | 73 | 225 | 3.5 | 6.1 | 0.00 | 0.00 | 0.00 | 73 | 1018.7 |
| 20260831223017 | 74 | 221 | 2.6 | 6.1 | 0.00 | 0.00 | 0.00 | 73 | 1018.6 |
| 20260831222511 | 74 | 227 | 3.5 | 6.1 | 0.00 | 0.00 | 0.00 | 72 | 1018.7 |
| 20260831222011 | 74 | 221 | 2.6 | 7.0 | 0.00 | 0.00 | 0.00 | 72 | 1018.7 |
| 20260831221525 | 74 | 219 | 2.6 | 7.0 | 0.00 | 0.00 | 0.00 | 71 | 1018.6 |
| 20260831221014 | 74 | 188 | 1.7 | 6.1 | 0.00 | 0.00 | 0.00 | 71 | 1018.7 |
| 20260831220514 | 74 | 225 | 4.3 | 6.1 | 0.00 | 0.00 | 0.00 | 70 | 1018.7 |
| 20260831220030 | 74 | 215 | 3.5 | 7.0 | 0.00 | 0.00 | 0.00 | 71 | 1018.6 |
| 20260831215522 | 74 | 224 | 4.3 | 8.7 | 0.00 | 0.00 | 0.00 | 70 | 1018.6 |
| 20260831215019 | 74 | 241 | 5.2 | 8.7 | 0.00 | 0.00 | 0.00 | 70 | 1018.6 |
| 20260831214543 | 74 | 212 | 5.2 | 9.6 | 0.00 | 0.00 | 0.00 | 70 | 1018.6 |
| 20260831214010 | 74 | 200 | 4.3 | 9.6 | 0.00 | 0.00 | 0.00 | 69 | 1018.6 |
| 20260831213506 | 75 | 225 | 4.3 | 7.8 | 0.00 | 0.00 | 0.00 | 69 | 1018.5 |
| 20260831213019 | 75 | 229 | 3.5 | 9.6 | 0.00 | 0.00 | 0.00 | 68 | 1018.6 |
| 20260831212506 | 75 | 207 | 4.3 | 9.6 | 0.00 | 0.00 | 0.00 | 67 | 1018.6 |
| 20260831212018 | 76 | 219 | 4.3 | 9.6 | 0.00 | 0.00 | 0.00 | 67 | 1018.6 |
| 20260831211525 | 76 | 217 | 2.6 | 11.3 | 0.00 | 0.00 | 0.00 | 66 | 1018.6 |
| 20260831211019 | 76 | 210 | 5.2 | 13.0 | 0.00 | 0.00 | 0.00 | 64 | 1018.5 |
| 20260831210514 | 77 | 188 | 6.1 | 13.0 | 0.00 | 0.00 | 0.00 | 63 | 1018.4 |
| 20260831210032 | 77 | 163 | 5.2 | 9.6 | 0.00 | 0.00 | 0.00 | 62 | 1018.4 |
| 20260831205514 | 78 | 218 | 2.6 | 8.7 | 0.00 | 0.00 | 0.00 | 66 | 1018.4 |
| 20260831205016 | 77 | 219 | 2.6 | 7.0 | 0.00 | 0.00 | 0.00 | 64 | 1018.5 |
| 20260831204537 | 77 | 196 | 3.5 | 6.1 | 0.00 | 0.00 | 0.00 | 64 | 1018.6 |
| 20260831204015 | 76 | 236 | 1.7 | 8.7 | 0.00 | 0.00 | 0.00 | 64 | 1018.7 |
| 20260831203514 | 76 | 225 | 4.3 | 8.7 | 0.00 | 0.00 | 0.00 | 63 | 1018.7 |
| 20260831203038 | 76 | 196 | 5.2 | 13.0 | 0.00 | 0.00 | 0.00 | 63 | 1018.7 |
| 20260831202517 | 76 | 178 | 5.2 | 13.0 | 0.00 | 0.00 | 0.00 | 62 | 1018.6 |
| 20260831202008 | 77 | 178 | 6.1 | 11.3 | 0.00 | 0.00 | 0.00 | 60 | 1018.6 |
| 20260831201520 | 78 | 191 | 7.0 | 14.8 | 0.00 | 0.00 | 0.00 | 58 | 1018.5 |
| 20260831201008 | 78 | 219 | 6.1 | 14.8 | 0.00 | 0.00 | 0.00 | 58 | 1018.6 |
| 20260831200511 | 78 | 215 | 6.1 | 14.8 | 0.00 | 0.00 | 0.00 | 58 | 1018.8 |
| 20260831200026 | 78 | 205 | 7.0 | 14.8 | 0.00 | 0.00 | 0.00 | 58 | 1018.7 |
| 20260831195514 | 78 | 247 | 6.1 | 14.8 | 0.00 | 0.00 | 0.00 | 58 | 1018.8 |
| 20260831195012 | 78 | 186 | 9.6 | 16.5 | 0.00 | 0.00 | 0.00 | 57 | 1018.7 |
| 20260831194529 | 79 | 219 | 6.1 | 16.5 | 0.00 | 0.00 | 0.00 | 56 | 1018.8 |
| 20260831194021 | 79 | 207 | 3.5 | 9.6 | 0.00 | 0.00 | 0.00 | 56 | 1018.8 |
| 20260831193516 | 79 | 178 | 6.1 | 9.6 | 0.00 | 0.00 | 0.00 | 57 | 1019.0 |
| 20260831193043 | 79 | 231 | 3.5 | 12.2 | 0.00 | 0.00 | 0.00 | 56 | 1019.1 |
| 20260831192516 | 79 | 212 | 7.0 | 12.2 | 0.00 | 0.00 | 0.00 | 57 | 1019.1 |
| 20260831192022 | 79 | 250 | 7.8 | 12.2 | 0.00 | 0.00 | 0.00 | 59 | 1019.1 |
| 20260831191544 | 78 | 169 | 5.2 | 10.4 | 0.00 | 0.00 | 0.00 | 60 | 1019.1 |
| 20260831191018 | 78 | 178 | 2.6 | 10.4 | 0.00 | 0.00 | 0.00 | 62 | 1019.1 |
| 20260831190510 | 78 | 133 | 2.6 | 11.3 | 0.00 | 0.00 | 0.00 | 60 | 1019.2 |
| 20260831190027 | 78 | 229 | 6.1 | 11.3 | 0.00 | 0.00 | 0.00 | 59 | 1019.3 |
| 20260831185513 | 78 | 237 | 6.1 | 10.4 | 0.00 | 0.00 | 0.00 | 61 | 1019.3 |
| 20260831185011 | 77 | 158 | 4.3 | 7.0 | 0.00 | 0.00 | 0.00 | 62 | 1019.3 |
| 20260831184528 | 76 | 187 | 3.5 | 8.7 | 0.00 | 0.00 | 0.00 | 63 | 1019.4 |
| 20260831184017 | 76 | 173 | 3.5 | 8.7 | 0.00 | 0.00 | 0.00 | 62 | 1019.4 |
| 20260831183517 | 76 | 236 | 5.2 | 7.8 | 0.00 | 0.00 | 0.00 | 60 | 1019.4 |
| 20260831183031 | 76 | 196 | 2.6 | 10.4 | 0.00 | 0.00 | 0.00 | 61 | 1019.3 |
| 20260831182514 | 76 | 241 | 4.3 | 10.4 | 0.00 | 0.00 | 0.00 | 60 | 1019.5 |
| 20260831182018 | 77 | 208 | 7.0 | 10.4 | 0.00 | 0.00 | 0.00 | 59 | 1019.5 |
| 20260831181530 | 77 | 160 | 3.5 | 8.7 | 0.00 | 0.00 | 0.00 | 61 | 1019.5 |
| 20260831181022 | 77 | 146 | 3.5 | 10.4 | 0.00 | 0.00 | 0.00 | 62 | 1019.6 |
| 20260831180522 | 77 | 175 | 6.1 | 10.4 | 0.00 | 0.00 | 0.00 | 57 | 1019.6 |
| 20260831180036 | 77 | 219 | 4.3 | 10.4 | 0.00 | 0.00 | 0.00 | 60 | 1019.6 |
| 20260831175519 | 76 | 219 | 3.5 | 11.3 | 0.00 | 0.00 | 0.00 | 58 | 1019.7 |
| 20260831175012 | 76 | 190 | 7.0 | 11.3 | 0.00 | 0.00 | 0.00 | 60 | 1019.7 |
| 20260831174526 | 76 | 227 | 3.5 | 9.6 | 0.00 | 0.00 | 0.00 | 61 | 1019.8 |
| 20260831174017 | 76 | 196 | 4.3 | 9.6 | 0.00 | 0.00 | 0.00 | 60 | 1019.9 |
| 20260831173514 | 76 | 156 | 2.6 | 8.7 | 0.00 | 0.00 | 0.00 | 63 | 1019.9 |
| 20260831173040 | 76 | 157 | 2.6 | 8.7 | 0.00 | 0.00 | 0.00 | 55 | 1019.9 |
| 20260831172515 | 76 | 189 | 4.3 | 8.7 | 0.00 | 0.00 | 0.00 | 57 | 1020.0 |
| 20260831172021 | 76 | 178 | 5.2 | 8.7 | 0.00 | 0.00 | 0.00 | 56 | 1020.0 |
| 20260831171535 | 76 | 229 | 2.6 | 6.1 | 0.00 | 0.00 | 0.00 | 55 | 1020.0 |
| 20260831171017 | 76 | 212 | 2.6 | 7.8 | 0.00 | 0.00 | 0.00 | 54 | 1020.0 |
| 20260831170523 | 77 | 254 | 1.7 | 7.8 | 0.00 | 0.00 | 0.00 | 52 | 1020.2 |
| 20260831170036 | 77 | 31 | 2.6 | 7.0 | 0.00 | 0.00 | 0.00 | 54 | 1020.3 |
| 20260831165518 | 77 | 34 | 0.9 | 4.3 | 0.00 | 0.00 | 0.00 | 57 | 1020.4 |
| 20260831165018 | 76 | 265 | 0.0 | 7.0 | 0.00 | 0.00 | 0.00 | 53 | 1020.5 |
| 20260831164525 | 76 | 137 | 1.7 | 7.0 | 0.00 | 0.00 | 0.00 | 55 | 1020.5 |
| 20260831164011 | 76 | 63 | 2.6 | 6.1 | 0.00 | 0.00 | 0.00 | 53 | 1020.6 |
| 20260831163513 | 76 | 225 | 2.6 | 6.1 | 0.00 | 0.00 | 0.00 | 52 | 1020.6 |
| 20260831163032 | 76 | 193 | 2.6 | 6.1 | 0.00 | 0.00 | 0.00 | 54 | 1020.7 |
| 20260831162518 | 75 | 9 | 0.9 | 5.2 | 0.00 | 0.00 | 0.00 | 56 | 1020.8 |
| 20260831162013 | 75 | 26 | 2.6 | 5.2 | 0.00 | 0.00 | 0.00 | 54 | 1020.7 |
| 20260831161508 | 75 | 51 | 0.9 | 6.1 | 0.00 | 0.00 | 0.00 | 55 | 1020.8 |
| 20260831161007 | 74 | 67 | 2.6 | 7.8 | 0.00 | 0.00 | 0.00 | 58 | 1020.8 |
| 20260831160517 | 75 | 65 | 4.3 | 7.8 | 0.00 | 0.00 | 0.00 | 57 | 1020.9 |
| 20260831160025 | 74 | 27 | 2.6 | 7.8 | 0.00 | 0.00 | 0.00 | 56 | 1020.9 |
| 20260831155507 | 74 | 205 | 1.7 | 6.1 | 0.00 | 0.00 | 0.00 | 54 | 1020.9 |